Regional Weather Roundup
Issued by NWS Goodland, KS

Home | Current Version | Previous Version | Graphics & Text | Print | Product List | Glossary On
Versions: 1 2 3 4 5 6 7 8 9 10 11 12 13 14 15 16 17 18 19 20 21 22 23 24 25 26 27 28 29 30 31 32 33 34 35 36 37 38 39 40 41 42 43 44 45 46 47 48 49 50
000
ASUS43 KGLD 281759
RWRGLD

GOODLAND FORECAST AREA HOURLY WEATHER ROUNDUP
NATIONAL WEATHER SERVICE GOODLAND KS
1200 PM MDT FRI AUG 28 2015

...OFFICIAL OBSERVATIONS...

CITY           SKY/WX    TMP DP  RH WIND       PRES   REMARKS
GOODLAND KS    SUNNY     88  48  25 N13G25    30.07F
HILL CITY KS   SUNNY     86  60  41 NW15      29.98F
IMPERIAL NEB   SUNNY     86  52  30 NW16      30.05S
MCCOOK NEB     SUNNY     85  60  42 N18       30.00F
AKRON CO       SUNNY     83  49  30 NW13      30.17F
BURLINGTON CO  SUNNY     85  47  26 NW17G23   30.13F
LIMON CO       SUNNY     78  48  34 N14G25    30.24F
$$

...UNOFFICIAL OBSERVATIONS...

CITY           SKY/WX    TMP DP  RH WIND       PRES   REMARKS
COLBY KS       SUNNY     90  55  31 W12G17    30.03F
GOVE KS          N/A     88  32  13 MISG        N/A
LENORA KS        N/A     83  32  16 MISG        N/A
NORTON KS      PTSUNNY   81  61  50 NW10G16   29.97F
SHARON SPRINGS   N/A     86  57  37 NW12G20     N/A
TRENTON NEB      N/A     81  32  17 N13         N/A
YUMA CO          N/A     83  51  32 NW16        N/A
$$


USA.gov is the U.S. government's official web portal to all federal, state and local government web resources and services.